Multibeam Report for NBP1001


Ship Name: Nathaniel B. Palmer
Chief Scientist: Domack, Eugene
Hamilton College
Source Organization: Marine Geoscience Data System (MGDS)
Start Date: 2010-01-04
End Date: 2010-03-01


View ISO Metadata

Visit the full NCEI Bathymetry Viewer


Multibeam Bathymetry

Cruise Details

Project: Collaborative Research in IPY: Abrupt Environmental Change in the LARsen Ice Shelf System, Antarctica (LARISSA)
Instrument: Kongsberg EM120

Data Quality

Number of Files: 678
Number of Records: 887902
BATHYMETRY DATA Quantity Percentage
Number of Beams 169589282 100%
Number of Good Beams 144272858 85.07%
Number of Zero Beams 25316424 14.93%
Number of Flagged Beams 0 0%
AMPLITUDE DATA Quantity Percentage
Number of Beams 169589282 100%
Number of Good Beams 144272858 85.07%
Number of Zero Beams 25316424 14.93%
Number of Flagged Beams 0 0%
SIDESCAN DATA Quantity Percentage
Number of Pixels 909211648 100%
Number of Good Pixels 544093266 59.84%
Number of Zero Pixels 0 0%
Number of Flagged Pixels 365118382 40.16%

Navigation Totals

Total Time: 585.812 hours
Total Track Length: 7183.9209 km
Average Speed: 12.263 km/hr (6.6215 knots)

Cruise Bounds

Northern Extent: -58.19509
Southern Extent: -67.613754
Western Extent: -68.14057
Eastern Extent: -56.143177

Limits

Minimum Sonar Depth 5.95 Maximum Sonar Depth 8.35
Minimum Altitude 0 Maximum Altitude 6188.3198
Minimum Depth 0 Maximum Depth 6970.4902
Minimum Amplitude 0 Maximum Amplitude 22.5
Minimum Sidescan 0 Maximum Sidescan 63

File Information

Full Resolution Bathymetry as collected (raw): 675

Files File Size Description
0000_20100107_005745_raw.all.mb56.gz 6.38MB Simrad multibeam vendor format
0001_20100107_014003_raw.all.mb56.gz 8.97MB Simrad multibeam vendor format
0002_20100107_024003_raw.all.mb56.gz 8.92MB Simrad multibeam vendor format
0003_20100107_034003_raw.all.mb56.gz 8.97MB Simrad multibeam vendor format
0004_20100107_044003_raw.all.mb56.gz 9.30MB Simrad multibeam vendor format
0005_20100107_054003_raw.all.mb56.gz 8.66MB Simrad multibeam vendor format
0006_20100107_064003_raw.all.mb56.gz 8.78MB Simrad multibeam vendor format
0007_20100107_074003_raw.all.mb56.gz 8.64MB Simrad multibeam vendor format
0008_20100107_084003_raw.all.mb56.gz 8.88MB Simrad multibeam vendor format
0009_20100107_094003_raw.all.mb56.gz 8.82MB Simrad multibeam vendor format
0010_20100107_104003_raw.all.mb56.gz 8.77MB Simrad multibeam vendor format
0011_20100107_114003_raw.all.mb56.gz 8.71MB Simrad multibeam vendor format
0012_20100107_124003_raw.all.mb56.gz 8.86MB Simrad multibeam vendor format
0013_20100107_134003_raw.all.mb56.gz 8.75MB Simrad multibeam vendor format
0014_20100107_144003_raw.all.mb56.gz 8.59MB Simrad multibeam vendor format
0015_20100107_154003_raw.all.mb56.gz 8.77MB Simrad multibeam vendor format
0016_20100107_164003_raw.all.mb56.gz 5.10MB Simrad multibeam vendor format
0017_20100107_171324_raw.all.mb56.gz 8.67MB Simrad multibeam vendor format
0018_20100107_181324_raw.all.mb56.gz 8.92MB Simrad multibeam vendor format
0019_20100107_191324_raw.all.mb56.gz 8.91MB Simrad multibeam vendor format
0020_20100107_201324_raw.all.mb56.gz 8.84MB Simrad multibeam vendor format
0021_20100107_211324_raw.all.mb56.gz 8.49MB Simrad multibeam vendor format
0022_20100107_221324_raw.all.mb56.gz 8.49MB Simrad multibeam vendor format
0023_20100107_231324_raw.all.mb56.gz 9.07MB Simrad multibeam vendor format
0024_20100108_001324_raw.all.mb56.gz 11.46MB Simrad multibeam vendor format
0025_20100108_011324_raw.all.mb56.gz 17.35MB Simrad multibeam vendor format
0026_20100108_021324_raw.all.mb56.gz 17.41MB Simrad multibeam vendor format
0027_20100108_031324_raw.all.mb56.gz 18.59MB Simrad multibeam vendor format
0028_20100108_041324_raw.all.mb56.gz 13.57MB Simrad multibeam vendor format
0029_20100108_051324_raw.all.mb56.gz 10.13MB Simrad multibeam vendor format
0030_20100108_061324_raw.all.mb56.gz 10.72MB Simrad multibeam vendor format
0031_20100108_071324_raw.all.mb56.gz 14.43MB Simrad multibeam vendor format
0032_20100108_081324_raw.all.mb56.gz 23.70MB Simrad multibeam vendor format
0033_20100108_091324_raw.all.mb56.gz 25.38MB Simrad multibeam vendor format
0034_20100108_101324_raw.all.mb56.gz 28.69MB Simrad multibeam vendor format
0035_20100108_111324_raw.all.mb56.gz 24.23MB Simrad multibeam vendor format
0036_20100108_121324_raw.all.mb56.gz 16.35MB Simrad multibeam vendor format
0037_20100108_131324_raw.all.mb56.gz 450.3KB Simrad multibeam vendor format
0038_20100108_131544_raw.all.mb56.gz 2.22MB Simrad multibeam vendor format
0039_20100108_132625_raw.all.mb56.gz 5.90MB Simrad multibeam vendor format
0040_20100108_135358_raw.all.mb56.gz 2.43MB Simrad multibeam vendor format
0041_20100108_140453_raw.all.mb56.gz 5.12MB Simrad multibeam vendor format
0042_20100108_142830_raw.all.mb56.gz 1.97MB Simrad multibeam vendor format
0043_20100108_143828_raw.all.mb56.gz 6.21MB Simrad multibeam vendor format
0044_20100108_150717_raw.all.mb56.gz 13.55MB Simrad multibeam vendor format
0045_20100108_160717_raw.all.mb56.gz 14.48MB Simrad multibeam vendor format
0046_20100108_170717_raw.all.mb56.gz 14.66MB Simrad multibeam vendor format
0047_20100108_180717_raw.all.mb56.gz 15.02MB Simrad multibeam vendor format
0048_20100108_190717_raw.all.mb56.gz 14.28MB Simrad multibeam vendor format
0049_20100108_200717_raw.all.mb56.gz 13.89MB Simrad multibeam vendor format
0050_20100108_210717_raw.all.mb56.gz 13.66MB Simrad multibeam vendor format
0051_20100108_220717_raw.all.mb56.gz 4.49MB Simrad multibeam vendor format
0052_20100109_010058_raw.all.mb56.gz 15.28MB Simrad multibeam vendor format
0053_20100109_020058_raw.all.mb56.gz 18.05MB Simrad multibeam vendor format
0054_20100109_030058_raw.all.mb56.gz 19.01MB Simrad multibeam vendor format
0055_20100109_040058_raw.all.mb56.gz 19.58MB Simrad multibeam vendor format
0056_20100109_050058_raw.all.mb56.gz 20.96MB Simrad multibeam vendor format
0057_20100109_060058_raw.all.mb56.gz 19.41MB Simrad multibeam vendor format
0058_20100109_070058_raw.all.mb56.gz 2.78MB Simrad multibeam vendor format
0059_20100109_071154_raw.all.mb56.gz 6.99MB Simrad multibeam vendor format
0060_20100109_073158_raw.all.mb56.gz 10.20MB Simrad multibeam vendor format
0061_20100109_085446_raw.all.mb56.gz 9.69MB Simrad multibeam vendor format
0062_20100109_092916_raw.all.mb56.gz 20.86MB Simrad multibeam vendor format
0063_20100109_102916_raw.all.mb56.gz 21.42MB Simrad multibeam vendor format
0064_20100109_112916_raw.all.mb56.gz 27.54MB Simrad multibeam vendor format
0065_20100109_122916_raw.all.mb56.gz 21.91MB Simrad multibeam vendor format
0066_20100109_132916_raw.all.mb56.gz 19.67MB Simrad multibeam vendor format
0067_20100109_142916_raw.all.mb56.gz 20.64MB Simrad multibeam vendor format
0068_20100109_152917_raw.all.mb56.gz 22.72MB Simrad multibeam vendor format
0069_20100109_162916_raw.all.mb56.gz 25.70MB Simrad multibeam vendor format
0070_20100109_172917_raw.all.mb56.gz 22.92MB Simrad multibeam vendor format
0071_20100109_182917_raw.all.mb56.gz 21.37MB Simrad multibeam vendor format
0072_20100109_192917_raw.all.mb56.gz 3.59MB Simrad multibeam vendor format
0073_20100109_195011_raw.all.mb56.gz 22.60MB Simrad multibeam vendor format
0074_20100109_205011_raw.all.mb56.gz 20.88MB Simrad multibeam vendor format
0075_20100109_215011_raw.all.mb56.gz 28.57MB Simrad multibeam vendor format
0076_20100109_225011_raw.all.mb56.gz 33.46MB Simrad multibeam vendor format
0077_20100109_235011_raw.all.mb56.gz 28.92MB Simrad multibeam vendor format
0078_20100110_005011_raw.all.mb56.gz 24.46MB Simrad multibeam vendor format
0079_20100110_015011_raw.all.mb56.gz 21.49MB Simrad multibeam vendor format
0080_20100110_025011_raw.all.mb56.gz 18.25MB Simrad multibeam vendor format
0081_20100110_035011_raw.all.mb56.gz 17.58MB Simrad multibeam vendor format
0082_20100110_045011_raw.all.mb56.gz 16.40MB Simrad multibeam vendor format
0083_20100110_055011_raw.all.mb56.gz 15.82MB Simrad multibeam vendor format
0084_20100110_065011_raw.all.mb56.gz 15.22MB Simrad multibeam vendor format
0085_20100110_075011_raw.all.mb56.gz 14.54MB Simrad multibeam vendor format
0086_20100110_085011_raw.all.mb56.gz 14.49MB Simrad multibeam vendor format
0087_20100110_095011_raw.all.mb56.gz 17.91MB Simrad multibeam vendor format
0088_20100110_105011_raw.all.mb56.gz 12.37MB Simrad multibeam vendor format
0089_20100110_115011_raw.all.mb56.gz 11.11MB Simrad multibeam vendor format
0090_20100110_125011_raw.all.mb56.gz 9.40MB Simrad multibeam vendor format
0091_20100110_135011_raw.all.mb56.gz 5.37MB Simrad multibeam vendor format
0092_20100110_142051_raw.all.mb56.gz 9.26MB Simrad multibeam vendor format
0093_20100110_152051_raw.all.mb56.gz 10.69MB Simrad multibeam vendor format
0094_20100110_162051_raw.all.mb56.gz 2.68MB Simrad multibeam vendor format
0095_20100110_173359_raw.all.mb56.gz 0.77MB Simrad multibeam vendor format
0096_20100110_174412_raw.all.mb56.gz 13.58MB Simrad multibeam vendor format
0097_20100111_232551_raw.all.mb56.gz 13.04MB Simrad multibeam vendor format
0098_20100112_002552_raw.all.mb56.gz 13.68MB Simrad multibeam vendor format
0099_20100112_012552_raw.all.mb56.gz 5.22MB Simrad multibeam vendor format
0100_20100112_015831_raw.all.mb56.gz 12.06MB Simrad multibeam vendor format
0101_20100112_025831_raw.all.mb56.gz 12.08MB Simrad multibeam vendor format
0102_20100112_035831_raw.all.mb56.gz 15.17MB Simrad multibeam vendor format
0103_20100112_045831_raw.all.mb56.gz 16.86MB Simrad multibeam vendor format
0104_20100112_055831_raw.all.mb56.gz 15.76MB Simrad multibeam vendor format
0105_20100112_065831_raw.all.mb56.gz 17.38MB Simrad multibeam vendor format
0106_20100112_075831_raw.all.mb56.gz 16.82MB Simrad multibeam vendor format
0107_20100112_085831_raw.all.mb56.gz 17.62MB Simrad multibeam vendor format
0108_20100112_095831_raw.all.mb56.gz 18.25MB Simrad multibeam vendor format
0109_20100112_105831_raw.all.mb56.gz 18.80MB Simrad multibeam vendor format
0110_20100112_115831_raw.all.mb56.gz 15.64MB Simrad multibeam vendor format
0111_20100112_125831_raw.all.mb56.gz 18.29MB Simrad multibeam vendor format
0112_20100112_135831_raw.all.mb56.gz 24.54MB Simrad multibeam vendor format
0113_20100112_145831_raw.all.mb56.gz 23.50MB Simrad multibeam vendor format
0114_20100112_155831_raw.all.mb56.gz 22.14MB Simrad multibeam vendor format
0115_20100112_165831_raw.all.mb56.gz 25.19MB Simrad multibeam vendor format
0116_20100112_175832_raw.all.mb56.gz 20.81MB Simrad multibeam vendor format
0117_20100112_185832_raw.all.mb56.gz 10.08MB Simrad multibeam vendor format
0118_20100112_193346_raw.all.mb56.gz 21.07MB Simrad multibeam vendor format
0119_20100112_203346_raw.all.mb56.gz 18.00MB Simrad multibeam vendor format
0120_20100112_213346_raw.all.mb56.gz 14.54MB Simrad multibeam vendor format
0121_20100112_223346_raw.all.mb56.gz 18.67MB Simrad multibeam vendor format
0122_20100112_233346_raw.all.mb56.gz 15.56MB Simrad multibeam vendor format
0123_20100113_003346_raw.all.mb56.gz 14.45MB Simrad multibeam vendor format
0124_20100113_013346_raw.all.mb56.gz 17.64MB Simrad multibeam vendor format
0125_20100113_023346_raw.all.mb56.gz 23.36MB Simrad multibeam vendor format
0126_20100113_033346_raw.all.mb56.gz 13.24MB Simrad multibeam vendor format
0127_20100113_043346_raw.all.mb56.gz 12.60MB Simrad multibeam vendor format
0128_20100113_053346_raw.all.mb56.gz 12.98MB Simrad multibeam vendor format
0129_20100113_063346_raw.all.mb56.gz 14.63MB Simrad multibeam vendor format
0130_20100113_073346_raw.all.mb56.gz 14.78MB Simrad multibeam vendor format
0131_20100113_083346_raw.all.mb56.gz 17.23MB Simrad multibeam vendor format
0132_20100113_093346_raw.all.mb56.gz 16.96MB Simrad multibeam vendor format
0133_20100113_103346_raw.all.mb56.gz 18.15MB Simrad multibeam vendor format
0134_20100113_113346_raw.all.mb56.gz 22.09MB Simrad multibeam vendor format
0135_20100113_123346_raw.all.mb56.gz 22.37MB Simrad multibeam vendor format
0136_20100113_133346_raw.all.mb56.gz 24.44MB Simrad multibeam vendor format
0137_20100113_143346_raw.all.mb56.gz 21.81MB Simrad multibeam vendor format
0138_20100113_153346_raw.all.mb56.gz 19.76MB Simrad multibeam vendor format
0139_20100113_163346_raw.all.mb56.gz 18.77MB Simrad multibeam vendor format
0140_20100113_173346_raw.all.mb56.gz 18.89MB Simrad multibeam vendor format
0141_20100113_183346_raw.all.mb56.gz 19.16MB Simrad multibeam vendor format
0142_20100113_193346_raw.all.mb56.gz 20.18MB Simrad multibeam vendor format
0143_20100113_203346_raw.all.mb56.gz 12.30MB Simrad multibeam vendor format
0144_20100113_222627_raw.all.mb56.gz 8.58MB Simrad multibeam vendor format
0145_20100113_225033_raw.all.mb56.gz 2.94MB Simrad multibeam vendor format
0146_20100113_230009_raw.all.mb56.gz 19.90MB Simrad multibeam vendor format
0147_20100114_000010_raw.all.mb56.gz 22.35MB Simrad multibeam vendor format
0148_20100114_010010_raw.all.mb56.gz 23.51MB Simrad multibeam vendor format
0149_20100114_020010_raw.all.mb56.gz 20.23MB Simrad multibeam vendor format
0150_20100114_030010_raw.all.mb56.gz 19.89MB Simrad multibeam vendor format
0151_20100114_040010_raw.all.mb56.gz 5.27MB Simrad multibeam vendor format
0152_20100114_052225_raw.all.mb56.gz 20.37MB Simrad multibeam vendor format
0153_20100114_062225_raw.all.mb56.gz 21.44MB Simrad multibeam vendor format
0154_20100114_072225_raw.all.mb56.gz 21.47MB Simrad multibeam vendor format
0155_20100114_082225_raw.all.mb56.gz 19.71MB Simrad multibeam vendor format
0156_20100114_092225_raw.all.mb56.gz 18.26MB Simrad multibeam vendor format
0157_20100114_102225_raw.all.mb56.gz 19.25MB Simrad multibeam vendor format
0158_20100114_112225_raw.all.mb56.gz 18.32MB Simrad multibeam vendor format
0159_20100114_122225_raw.all.mb56.gz 7.97MB Simrad multibeam vendor format
0160_20100114_131929_raw.all.mb56.gz 3.88MB Simrad multibeam vendor format
0161_20100114_211208_raw.all.mb56.gz 17.64MB Simrad multibeam vendor format
0162_20100114_221209_raw.all.mb56.gz 17.84MB Simrad multibeam vendor format
0163_20100114_231209_raw.all.mb56.gz 18.04MB Simrad multibeam vendor format
0164_20100115_001209_raw.all.mb56.gz 18.12MB Simrad multibeam vendor format
0165_20100115_011209_raw.all.mb56.gz 17.80MB Simrad multibeam vendor format
0166_20100115_021209_raw.all.mb56.gz 18.65MB Simrad multibeam vendor format
0167_20100115_031209_raw.all.mb56.gz 18.95MB Simrad multibeam vendor format
0168_20100115_041209_raw.all.mb56.gz 18.30MB Simrad multibeam vendor format
0169_20100115_051209_raw.all.mb56.gz 7.66MB Simrad multibeam vendor format
0170_20100115_053815_raw.all.mb56.gz 17.2KB Simrad multibeam vendor format
0171_20100115_053827_raw.all.mb56.gz 0.61MB Simrad multibeam vendor format
0172_20100115_054052_raw.all.mb56.gz 1.26MB Simrad multibeam vendor format
0173_20100115_054648_raw.all.mb56.gz 16.61MB Simrad multibeam vendor format
0174_20100115_064648_raw.all.mb56.gz 8.11MB Simrad multibeam vendor format
0175_20100115_072247_raw.all.mb56.gz 16.27MB Simrad multibeam vendor format
0176_20100115_082247_raw.all.mb56.gz 25.83MB Simrad multibeam vendor format
0177_20100115_092247_raw.all.mb56.gz 11.87MB Simrad multibeam vendor format
0178_20100115_102711_raw.all.mb56.gz 25.92MB Simrad multibeam vendor format
0179_20100115_112711_raw.all.mb56.gz 18.28MB Simrad multibeam vendor format
0180_20100115_122711_raw.all.mb56.gz 17.99MB Simrad multibeam vendor format
0181_20100115_132711_raw.all.mb56.gz 14.67MB Simrad multibeam vendor format
0182_20100115_142711_raw.all.mb56.gz 14.22MB Simrad multibeam vendor format
0183_20100115_152711_raw.all.mb56.gz 15.11MB Simrad multibeam vendor format
0184_20100115_162711_raw.all.mb56.gz 15.94MB Simrad multibeam vendor format
0185_20100115_172711_raw.all.mb56.gz 14.63MB Simrad multibeam vendor format
0186_20100115_182711_raw.all.mb56.gz 11.77MB Simrad multibeam vendor format
0187_20100115_214236_raw.all.mb56.gz 10.15MB Simrad multibeam vendor format
0188_20100115_222224_raw.all.mb56.gz 16.14MB Simrad multibeam vendor format
0189_20100115_232224_raw.all.mb56.gz 14.87MB Simrad multibeam vendor format
0190_20100116_002224_raw.all.mb56.gz 15.37MB Simrad multibeam vendor format
0191_20100116_012224_raw.all.mb56.gz 32.43MB Simrad multibeam vendor format
0192_20100116_022224_raw.all.mb56.gz 28.36MB Simrad multibeam vendor format
0193_20100116_032224_raw.all.mb56.gz 0.70MB Simrad multibeam vendor format
0194_20100116_091636_raw.all.mb56.gz 16.45MB Simrad multibeam vendor format
0195_20100116_101636_raw.all.mb56.gz 15.57MB Simrad multibeam vendor format
0196_20100116_111636_raw.all.mb56.gz 15.96MB Simrad multibeam vendor format
0197_20100116_121636_raw.all.mb56.gz 14.99MB Simrad multibeam vendor format
0198_20100116_131636_raw.all.mb56.gz 0.57MB Simrad multibeam vendor format
0199_20100116_185919_raw.all.mb56.gz 14.46MB Simrad multibeam vendor format
0200_20100116_195919_raw.all.mb56.gz 15.09MB Simrad multibeam vendor format
0201_20100116_205919_raw.all.mb56.gz 15.66MB Simrad multibeam vendor format
0202_20100116_215919_raw.all.mb56.gz 15.62MB Simrad multibeam vendor format
0203_20100116_225919_raw.all.mb56.gz 11.83MB Simrad multibeam vendor format
0204_20100116_235919_raw.all.mb56.gz 19.29MB Simrad multibeam vendor format
0205_20100117_005919_raw.all.mb56.gz 18.78MB Simrad multibeam vendor format
0206_20100117_015919_raw.all.mb56.gz 18.10MB Simrad multibeam vendor format
0207_20100117_025919_raw.all.mb56.gz 18.28MB Simrad multibeam vendor format
0208_20100117_035919_raw.all.mb56.gz 20.22MB Simrad multibeam vendor format
0209_20100117_045919_raw.all.mb56.gz 19.14MB Simrad multibeam vendor format
0210_20100117_055919_raw.all.mb56.gz 20.49MB Simrad multibeam vendor format
0211_20100117_065919_raw.all.mb56.gz 18.43MB Simrad multibeam vendor format
0212_20100117_133538_raw.all.mb56.gz 17.39MB Simrad multibeam vendor format
0213_20100117_145416_raw.all.mb56.gz 19.22MB Simrad multibeam vendor format
0214_20100117_171911_raw.all.mb56.gz 8.43MB Simrad multibeam vendor format
0215_20100118_112806_raw.all.mb56.gz 19.25MB Simrad multibeam vendor format
0216_20100118_122806_raw.all.mb56.gz 21.12MB Simrad multibeam vendor format
0217_20100118_132806_raw.all.mb56.gz 20.96MB Simrad multibeam vendor format
0218_20100118_142806_raw.all.mb56.gz 15.08MB Simrad multibeam vendor format
0219_20100118_161658_raw.all.mb56.gz 16.39MB Simrad multibeam vendor format
0220_20100118_171435_raw.all.mb56.gz 17.49MB Simrad multibeam vendor format
0221_20100118_181435_raw.all.mb56.gz 19.85MB Simrad multibeam vendor format
0222_20100118_191435_raw.all.mb56.gz 16.51MB Simrad multibeam vendor format
0223_20100118_232925_raw.all.mb56.gz 19.36MB Simrad multibeam vendor format
0224_20100119_002925_raw.all.mb56.gz 18.72MB Simrad multibeam vendor format
0225_20100119_012925_raw.all.mb56.gz 11.97MB Simrad multibeam vendor format
0226_20100119_093626_raw.all.mb56.gz 7.98MB Simrad multibeam vendor format
0227_20100119_165857_raw.all.mb56.gz 20.11MB Simrad multibeam vendor format
0228_20100119_175857_raw.all.mb56.gz 10.85MB Simrad multibeam vendor format
0229_20100119_223708_raw.all.mb56.gz 6.20MB Simrad multibeam vendor format
0230_20100120_004709_raw.all.mb56.gz 20.00MB Simrad multibeam vendor format
0231_20100120_014709_raw.all.mb56.gz 20.07MB Simrad multibeam vendor format
0232_20100120_024709_raw.all.mb56.gz 7.50MB Simrad multibeam vendor format
0233_20100120_110508_raw.all.mb56.gz 20.00MB Simrad multibeam vendor format
0234_20100120_120508_raw.all.mb56.gz 10.37MB Simrad multibeam vendor format
0235_20100120_125552_raw.all.mb56.gz 13.61MB Simrad multibeam vendor format
0236_20100120_134203_raw.all.mb56.gz 2.16MB Simrad multibeam vendor format
0237_20100120_141333_raw.all.mb56.gz 14.61MB Simrad multibeam vendor format
0238_20100120_152412_raw.all.mb56.gz 2.92MB Simrad multibeam vendor format
0239_20100120_224030_raw.all.mb56.gz 20.39MB Simrad multibeam vendor format
0240_20100120_234030_raw.all.mb56.gz 8.94MB Simrad multibeam vendor format
0241_20100121_030502_raw.all.mb56.gz 21.07MB Simrad multibeam vendor format
0242_20100121_040502_raw.all.mb56.gz 23.09MB Simrad multibeam vendor format
0243_20100121_050502_raw.all.mb56.gz 13.03MB Simrad multibeam vendor format
0244_20100121_065729_raw.all.mb56.gz 23.37MB Simrad multibeam vendor format
0245_20100121_075729_raw.all.mb56.gz 22.57MB Simrad multibeam vendor format
0246_20100121_085729_raw.all.mb56.gz 20.58MB Simrad multibeam vendor format
0247_20100121_095729_raw.all.mb56.gz 16.93MB Simrad multibeam vendor format
0248_20100121_125534_raw.all.mb56.gz 14.58MB Simrad multibeam vendor format
0249_20100121_190214_raw.all.mb56.gz 19.66MB Simrad multibeam vendor format
0250_20100121_200214_raw.all.mb56.gz 21.30MB Simrad multibeam vendor format
0251_20100121_210214_raw.all.mb56.gz 21.13MB Simrad multibeam vendor format
0252_20100121_220214_raw.all.mb56.gz 18.29MB Simrad multibeam vendor format
0253_20100121_230214_raw.all.mb56.gz 18.84MB Simrad multibeam vendor format
0254_20100122_000214_raw.all.mb56.gz 15.88MB Simrad multibeam vendor format
0255_20100122_010214_raw.all.mb56.gz 17.46MB Simrad multibeam vendor format
0256_20100122_020214_raw.all.mb56.gz 22.55MB Simrad multibeam vendor format
0257_20100122_030214_raw.all.mb56.gz 19.24MB Simrad multibeam vendor format
0258_20100122_040214_raw.all.mb56.gz 18.06MB Simrad multibeam vendor format
0259_20100122_050214_raw.all.mb56.gz 22.69MB Simrad multibeam vendor format
0260_20100122_060214_raw.all.mb56.gz 19.31MB Simrad multibeam vendor format
0261_20100122_070214_raw.all.mb56.gz 21.58MB Simrad multibeam vendor format
0262_20100122_080214_raw.all.mb56.gz 20.11MB Simrad multibeam vendor format
0263_20100122_090214_raw.all.mb56.gz 20.45MB Simrad multibeam vendor format
0264_20100122_100214_raw.all.mb56.gz 21.37MB Simrad multibeam vendor format
0265_20100122_110214_raw.all.mb56.gz 18.57MB Simrad multibeam vendor format
0266_20100122_120214_raw.all.mb56.gz 23.55MB Simrad multibeam vendor format
0267_20100122_130214_raw.all.mb56.gz 20.85MB Simrad multibeam vendor format
0268_20100122_140214_raw.all.mb56.gz 19.08MB Simrad multibeam vendor format
0269_20100122_150214_raw.all.mb56.gz 10.01MB Simrad multibeam vendor format
0270_20100122_153608_raw.all.mb56.gz 20.37MB Simrad multibeam vendor format
0271_20100122_163608_raw.all.mb56.gz 19.60MB Simrad multibeam vendor format
0272_20100122_173609_raw.all.mb56.gz 19.54MB Simrad multibeam vendor format
0273_20100122_183609_raw.all.mb56.gz 21.75MB Simrad multibeam vendor format
0274_20100122_193609_raw.all.mb56.gz 23.47MB Simrad multibeam vendor format
0275_20100122_203609_raw.all.mb56.gz 19.17MB Simrad multibeam vendor format
0276_20100122_213609_raw.all.mb56.gz 19.92MB Simrad multibeam vendor format
0277_20100122_223609_raw.all.mb56.gz 19.08MB Simrad multibeam vendor format
0278_20100122_233609_raw.all.mb56.gz 19.28MB Simrad multibeam vendor format
0279_20100123_003609_raw.all.mb56.gz 17.98MB Simrad multibeam vendor format
0280_20100123_013609_raw.all.mb56.gz 2.27MB Simrad multibeam vendor format
0281_20100123_220606_raw.all.mb56.gz 18.79MB Simrad multibeam vendor format
0282_20100123_230606_raw.all.mb56.gz 15.61MB Simrad multibeam vendor format
0283_20100123_235216_raw.all.mb56.gz 6.38MB Simrad multibeam vendor format
0284_20100124_001140_raw.all.mb56.gz 197.8KB Simrad multibeam vendor format
0285_20100124_001212_raw.all.mb56.gz 1.14MB Simrad multibeam vendor format
0286_20100124_001544_raw.all.mb56.gz 20.36MB Simrad multibeam vendor format
0287_20100124_011544_raw.all.mb56.gz 19.94MB Simrad multibeam vendor format
0288_20100124_021544_raw.all.mb56.gz 22.31MB Simrad multibeam vendor format
0289_20100124_031544_raw.all.mb56.gz 18.61MB Simrad multibeam vendor format
0290_20100124_041544_raw.all.mb56.gz 14.19MB Simrad multibeam vendor format
0291_20100124_050348_raw.all.mb56.gz 17.01MB Simrad multibeam vendor format
0292_20100124_093034_raw.all.mb56.gz 3.19MB Simrad multibeam vendor format
0293_20100124_132422_raw.all.mb56.gz 22.55MB Simrad multibeam vendor format
0294_20100124_142422_raw.all.mb56.gz 21.04MB Simrad multibeam vendor format
0295_20100124_152422_raw.all.mb56.gz 19.71MB Simrad multibeam vendor format
0296_20100124_162422_raw.all.mb56.gz 19.57MB Simrad multibeam vendor format
0297_20100124_172422_raw.all.mb56.gz 15.76MB Simrad multibeam vendor format
0298_20100124_181130_raw.all.mb56.gz 19.31MB Simrad multibeam vendor format
0299_20100124_202213_raw.all.mb56.gz 13.90MB Simrad multibeam vendor format
0300_20100124_220512_raw.all.mb56.gz 13.65MB Simrad multibeam vendor format
0301_20100124_235126_raw.all.mb56.gz 19.46MB Simrad multibeam vendor format
0302_20100125_005126_raw.all.mb56.gz 0.94MB Simrad multibeam vendor format
0303_20100125_121551_raw.all.mb56.gz 19.07MB Simrad multibeam vendor format
0304_20100125_131551_raw.all.mb56.gz 281.0KB Simrad multibeam vendor format
0305_20100125_173536_raw.all.mb56.gz 20.18MB Simrad multibeam vendor format
0306_20100125_183536_raw.all.mb56.gz 21.64MB Simrad multibeam vendor format
0307_20100125_193536_raw.all.mb56.gz 19.77MB Simrad multibeam vendor format
0308_20100125_203536_raw.all.mb56.gz 23.34MB Simrad multibeam vendor format
0309_20100125_213536_raw.all.mb56.gz 23.47MB Simrad multibeam vendor format
0310_20100125_223536_raw.all.mb56.gz 22.50MB Simrad multibeam vendor format
0311_20100125_233536_raw.all.mb56.gz 22.48MB Simrad multibeam vendor format
0312_20100126_003536_raw.all.mb56.gz 21.22MB Simrad multibeam vendor format
0313_20100126_013536_raw.all.mb56.gz 20.00MB Simrad multibeam vendor format
0314_20100126_023536_raw.all.mb56.gz 17.54MB Simrad multibeam vendor format
0315_20100126_033536_raw.all.mb56.gz 22.22MB Simrad multibeam vendor format
0316_20100126_043536_raw.all.mb56.gz 21.27MB Simrad multibeam vendor format
0317_20100126_053536_raw.all.mb56.gz 14.39MB Simrad multibeam vendor format
0318_20100126_063536_raw.all.mb56.gz 13.90MB Simrad multibeam vendor format
0319_20100126_073536_raw.all.mb56.gz 18.88MB Simrad multibeam vendor format
0320_20100126_083536_raw.all.mb56.gz 18.45MB Simrad multibeam vendor format
0321_20100126_093536_raw.all.mb56.gz 21.66MB Simrad multibeam vendor format
0322_20100126_103536_raw.all.mb56.gz 21.28MB Simrad multibeam vendor format
0323_20100126_113536_raw.all.mb56.gz 18.87MB Simrad multibeam vendor format
0324_20100126_123536_raw.all.mb56.gz 19.84MB Simrad multibeam vendor format
0325_20100126_133536_raw.all.mb56.gz 19.37MB Simrad multibeam vendor format
0326_20100126_143536_raw.all.mb56.gz 18.61MB Simrad multibeam vendor format
0327_20100126_153536_raw.all.mb56.gz 17.15MB Simrad multibeam vendor format
0328_20100126_163537_raw.all.mb56.gz 85.4KB Simrad multibeam vendor format
0329_20100127_030921_raw.all.mb56.gz 20.04MB Simrad multibeam vendor format
0330_20100127_040921_raw.all.mb56.gz 19.24MB Simrad multibeam vendor format
0331_20100127_050921_raw.all.mb56.gz 19.56MB Simrad multibeam vendor format
0332_20100127_060921_raw.all.mb56.gz 21.37MB Simrad multibeam vendor format
0333_20100127_070921_raw.all.mb56.gz 19.93MB Simrad multibeam vendor format
0334_20100127_080921_raw.all.mb56.gz 18.98MB Simrad multibeam vendor format
0335_20100127_090921_raw.all.mb56.gz 17.93MB Simrad multibeam vendor format
0336_20100127_100921_raw.all.mb56.gz 15.43MB Simrad multibeam vendor format
0337_20100127_110921_raw.all.mb56.gz 12.92MB Simrad multibeam vendor format
0338_20100127_120921_raw.all.mb56.gz 20.67MB Simrad multibeam vendor format
0339_20100127_130921_raw.all.mb56.gz 22.20MB Simrad multibeam vendor format
0340_20100127_140921_raw.all.mb56.gz 17.04MB Simrad multibeam vendor format
0341_20100127_150921_raw.all.mb56.gz 19.86MB Simrad multibeam vendor format
0342_20100127_160921_raw.all.mb56.gz 20.74MB Simrad multibeam vendor format
0343_20100127_170921_raw.all.mb56.gz 21.62MB Simrad multibeam vendor format
0344_20100127_180921_raw.all.mb56.gz 22.07MB Simrad multibeam vendor format
0345_20100127_190921_raw.all.mb56.gz 23.62MB Simrad multibeam vendor format
0346_20100127_200921_raw.all.mb56.gz 21.15MB Simrad multibeam vendor format
0347_20100127_210921_raw.all.mb56.gz 20.47MB Simrad multibeam vendor format
0348_20100127_220921_raw.all.mb56.gz 0.61MB Simrad multibeam vendor format
0349_20100128_021937_raw.all.mb56.gz 20.16MB Simrad multibeam vendor format
0350_20100128_031938_raw.all.mb56.gz 20.79MB Simrad multibeam vendor format
0351_20100128_041938_raw.all.mb56.gz 17.46MB Simrad multibeam vendor format
0352_20100128_051938_raw.all.mb56.gz 17.93MB Simrad multibeam vendor format
0353_20100128_061938_raw.all.mb56.gz 19.35MB Simrad multibeam vendor format
0354_20100128_071938_raw.all.mb56.gz 16.12MB Simrad multibeam vendor format
0355_20100128_081938_raw.all.mb56.gz 13.25MB Simrad multibeam vendor format
0356_20100128_091938_raw.all.mb56.gz 26.80MB Simrad multibeam vendor format
0357_20100128_101938_raw.all.mb56.gz 6.03MB Simrad multibeam vendor format
0358_20100128_122728_raw.all.mb56.gz 28.26MB Simrad multibeam vendor format
0359_20100128_132728_raw.all.mb56.gz 19.12MB Simrad multibeam vendor format
0360_20100128_142728_raw.all.mb56.gz 20.30MB Simrad multibeam vendor format
0361_20100128_152728_raw.all.mb56.gz 22.42MB Simrad multibeam vendor format
0362_20100128_162728_raw.all.mb56.gz 20.02MB Simrad multibeam vendor format
0363_20100128_172728_raw.all.mb56.gz 17.23MB Simrad multibeam vendor format
0364_20100128_182728_raw.all.mb56.gz 17.25MB Simrad multibeam vendor format
0365_20100128_192728_raw.all.mb56.gz 15.52MB Simrad multibeam vendor format
0366_20100128_202728_raw.all.mb56.gz 15.64MB Simrad multibeam vendor format
0367_20100128_212442_raw.all.mb56.gz 0.62MB Simrad multibeam vendor format
0368_20100128_212634_raw.all.mb56.gz 20.59MB Simrad multibeam vendor format
0369_20100128_222634_raw.all.mb56.gz 22.40MB Simrad multibeam vendor format
0370_20100128_232634_raw.all.mb56.gz 22.54MB Simrad multibeam vendor format
0371_20100129_002634_raw.all.mb56.gz 19.68MB Simrad multibeam vendor format
0372_20100129_012634_raw.all.mb56.gz 17.58MB Simrad multibeam vendor format
0373_20100129_022634_raw.all.mb56.gz 16.78MB Simrad multibeam vendor format
0374_20100129_032634_raw.all.mb56.gz 17.35MB Simrad multibeam vendor format
0375_20100129_042634_raw.all.mb56.gz 16.01MB Simrad multibeam vendor format
0376_20100129_052634_raw.all.mb56.gz 18.32MB Simrad multibeam vendor format
0377_20100129_062634_raw.all.mb56.gz 21.84MB Simrad multibeam vendor format
0378_20100129_072634_raw.all.mb56.gz 24.34MB Simrad multibeam vendor format
0379_20100129_082634_raw.all.mb56.gz 20.33MB Simrad multibeam vendor format
0380_20100129_092634_raw.all.mb56.gz 20.01MB Simrad multibeam vendor format
0381_20100129_102634_raw.all.mb56.gz 20.41MB Simrad multibeam vendor format
0382_20100129_112634_raw.all.mb56.gz 32.19MB Simrad multibeam vendor format
0383_20100129_122634_raw.all.mb56.gz 19.68MB Simrad multibeam vendor format
0384_20100129_132634_raw.all.mb56.gz 28.19MB Simrad multibeam vendor format
0385_20100129_142634_raw.all.mb56.gz 19.22MB Simrad multibeam vendor format
0386_20100129_152634_raw.all.mb56.gz 0.71MB Simrad multibeam vendor format
0387_20100129_152947_raw.all.mb56.gz 16.11MB Simrad multibeam vendor format
0388_20100129_162947_raw.all.mb56.gz 18.76MB Simrad multibeam vendor format
0389_20100129_172947_raw.all.mb56.gz 21.93MB Simrad multibeam vendor format
0390_20100129_182947_raw.all.mb56.gz 24.28MB Simrad multibeam vendor format
0391_20100129_192947_raw.all.mb56.gz 22.76MB Simrad multibeam vendor format
0392_20100129_202947_raw.all.mb56.gz 23.07MB Simrad multibeam vendor format
0393_20100129_212947_raw.all.mb56.gz 21.92MB Simrad multibeam vendor format
0394_20100129_222947_raw.all.mb56.gz 13.55MB Simrad multibeam vendor format
0395_20100129_232947_raw.all.mb56.gz 10.53MB Simrad multibeam vendor format
0396_20100130_002947_raw.all.mb56.gz 23.04MB Simrad multibeam vendor format
0397_20100130_012947_raw.all.mb56.gz 14.32MB Simrad multibeam vendor format
0398_20100130_022947_raw.all.mb56.gz 14.65MB Simrad multibeam vendor format
0399_20100130_032947_raw.all.mb56.gz 15.40MB Simrad multibeam vendor format
0400_20100130_042947_raw.all.mb56.gz 14.79MB Simrad multibeam vendor format
0401_20100130_052947_raw.all.mb56.gz 13.32MB Simrad multibeam vendor format
0402_20100130_062947_raw.all.mb56.gz 11.91MB Simrad multibeam vendor format
0403_20100130_072947_raw.all.mb56.gz 12.45MB Simrad multibeam vendor format
0404_20100130_082947_raw.all.mb56.gz 14.57MB Simrad multibeam vendor format
0405_20100130_092947_raw.all.mb56.gz 13.26MB Simrad multibeam vendor format
0406_20100130_102947_raw.all.mb56.gz 14.56MB Simrad multibeam vendor format
0407_20100130_112947_raw.all.mb56.gz 13.98MB Simrad multibeam vendor format
0408_20100130_122947_raw.all.mb56.gz 13.69MB Simrad multibeam vendor format
0409_20100130_132947_raw.all.mb56.gz 15.55MB Simrad multibeam vendor format
0410_20100130_142947_raw.all.mb56.gz 15.01MB Simrad multibeam vendor format
0411_20100130_152947_raw.all.mb56.gz 16.10MB Simrad multibeam vendor format
0412_20100130_162947_raw.all.mb56.gz 17.60MB Simrad multibeam vendor format
0413_20100130_172947_raw.all.mb56.gz 10.13MB Simrad multibeam vendor format
0414_20100130_195557_raw.all.mb56.gz 2.60MB Simrad multibeam vendor format
0415_20100130_224336_raw.all.mb56.gz 6.54MB Simrad multibeam vendor format
0416_20100131_123130_raw.all.mb56.gz 17.82MB Simrad multibeam vendor format
0417_20100131_133130_raw.all.mb56.gz 7.01MB Simrad multibeam vendor format
0418_20100131_165328_raw.all.mb56.gz 29.5KB Simrad multibeam vendor format
0419_20100131_165403_raw.all.mb56.gz 391.2KB Simrad multibeam vendor format
0420_20100131_172922_raw.all.mb56.gz 28.1KB Simrad multibeam vendor format
0421_20100131_215617_raw.all.mb56.gz 1.61MB Simrad multibeam vendor format
0422_20100201_095139_raw.all.mb56.gz 15.71MB Simrad multibeam vendor format
0423_20100201_105139_raw.all.mb56.gz 15.06MB Simrad multibeam vendor format
0424_20100201_115139_raw.all.mb56.gz 21.24MB Simrad multibeam vendor format
0425_20100201_125139_raw.all.mb56.gz 21.18MB Simrad multibeam vendor format
0426_20100201_135139_raw.all.mb56.gz 15.74MB Simrad multibeam vendor format
0427_20100201_145139_raw.all.mb56.gz 13.82MB Simrad multibeam vendor format
0428_20100201_155139_raw.all.mb56.gz 14.18MB Simrad multibeam vendor format
0429_20100201_165139_raw.all.mb56.gz 19.97MB Simrad multibeam vendor format
0430_20100201_175139_raw.all.mb56.gz 19.93MB Simrad multibeam vendor format
0431_20100201_185139_raw.all.mb56.gz 20.29MB Simrad multibeam vendor format
0432_20100201_195139_raw.all.mb56.gz 18.99MB Simrad multibeam vendor format
0433_20100201_205139_raw.all.mb56.gz 20.22MB Simrad multibeam vendor format
0434_20100201_215139_raw.all.mb56.gz 20.95MB Simrad multibeam vendor format
0435_20100201_225139_raw.all.mb56.gz 18.78MB Simrad multibeam vendor format
0436_20100201_235139_raw.all.mb56.gz 19.01MB Simrad multibeam vendor format
0437_20100202_005139_raw.all.mb56.gz 21.03MB Simrad multibeam vendor format
0438_20100202_015139_raw.all.mb56.gz 14.48MB Simrad multibeam vendor format
0439_20100202_074728_raw.all.mb56.gz 19.18MB Simrad multibeam vendor format
0440_20100202_084728_raw.all.mb56.gz 17.65MB Simrad multibeam vendor format
0441_20100202_094728_raw.all.mb56.gz 17.77MB Simrad multibeam vendor format
0442_20100202_104728_raw.all.mb56.gz 17.35MB Simrad multibeam vendor format
0443_20100202_114728_raw.all.mb56.gz 11.95MB Simrad multibeam vendor format
0444_20100202_124728_raw.all.mb56.gz 2.97MB Simrad multibeam vendor format
0445_20100202_152816_raw.all.mb56.gz 4.61MB Simrad multibeam vendor format
0446_20100203_164428_raw.all.mb56.gz 13.04MB Simrad multibeam vendor format
0447_20100203_191316_raw.all.mb56.gz 4.70MB Simrad multibeam vendor format
0448_20100203_193906_raw.all.mb56.gz 5.90MB Simrad multibeam vendor format
0449_20100204_055448_raw.all.mb56.gz 3.38MB Simrad multibeam vendor format
0450_20100204_105402_raw.all.mb56.gz 3.58MB Simrad multibeam vendor format
0451_20100204_121826_raw.all.mb56.gz 18.37MB Simrad multibeam vendor format
0452_20100204_131826_raw.all.mb56.gz 12.75MB Simrad multibeam vendor format
0453_20100204_215219_raw.all.mb56.gz 8.97MB Simrad multibeam vendor format
0454_20100205_010239_raw.all.mb56.gz 18.30MB Simrad multibeam vendor format
0455_20100206_080214_raw.all.mb56.gz 19.20MB Simrad multibeam vendor format
0456_20100206_090214_raw.all.mb56.gz 18.10MB Simrad multibeam vendor format
0457_20100206_100214_raw.all.mb56.gz 8.62MB Simrad multibeam vendor format
0458_20100206_183607_raw.all.mb56.gz 18.78MB Simrad multibeam vendor format
0459_20100206_193326_raw.all.mb56.gz 18.88MB Simrad multibeam vendor format
0460_20100206_203326_raw.all.mb56.gz 19.46MB Simrad multibeam vendor format
0461_20100206_213326_raw.all.mb56.gz 8.43MB Simrad multibeam vendor format
0462_20100207_152025_raw.all.mb56.gz 19.07MB Simrad multibeam vendor format
0463_20100207_162025_raw.all.mb56.gz 19.48MB Simrad multibeam vendor format
0464_20100207_172025_raw.all.mb56.gz 13.22MB Simrad multibeam vendor format
0465_20100207_195920_raw.all.mb56.gz 19.56MB Simrad multibeam vendor format
0466_20100207_205920_raw.all.mb56.gz 3.73MB Simrad multibeam vendor format
0467_20100207_233009_raw.all.mb56.gz 16.97MB Simrad multibeam vendor format
0468_20100208_003009_raw.all.mb56.gz 19.51MB Simrad multibeam vendor format
0469_20100208_013009_raw.all.mb56.gz 19.50MB Simrad multibeam vendor format
0470_20100208_023009_raw.all.mb56.gz 10.08MB Simrad multibeam vendor format
0471_20100208_055601_raw.all.mb56.gz 18.00MB Simrad multibeam vendor format
0472_20100208_065601_raw.all.mb56.gz 12.78MB Simrad multibeam vendor format
0473_20100208_074433_raw.all.mb56.gz 10.86MB Simrad multibeam vendor format
0474_20100208_185143_raw.all.mb56.gz 19.19MB Simrad multibeam vendor format
0475_20100208_195143_raw.all.mb56.gz 18.02MB Simrad multibeam vendor format
0476_20100208_215117_raw.all.mb56.gz 13.20MB Simrad multibeam vendor format
0477_20100209_232909_raw.all.mb56.gz 2.48MB Simrad multibeam vendor format
0478_20100209_234628_raw.all.mb56.gz 16.85MB Simrad multibeam vendor format
0479_20100210_095928_raw.all.mb56.gz 18.72MB Simrad multibeam vendor format
0480_20100210_121855_raw.all.mb56.gz 15.68MB Simrad multibeam vendor format
0481_20100211_003857_raw.all.mb56.gz 9.79MB Simrad multibeam vendor format
0482_20100211_012513_raw.all.mb56.gz 18.66MB Simrad multibeam vendor format
0483_20100211_022513_raw.all.mb56.gz 4.25MB Simrad multibeam vendor format
0484_20100211_040204_raw.all.mb56.gz 13.01MB Simrad multibeam vendor format
0485_20100211_050204_raw.all.mb56.gz 4.26MB Simrad multibeam vendor format
0486_20100212_104611_raw.all.mb56.gz 17.73MB Simrad multibeam vendor format
0487_20100212_114611_raw.all.mb56.gz 17.94MB Simrad multibeam vendor format
0488_20100212_124611_raw.all.mb56.gz 22.44MB Simrad multibeam vendor format
0489_20100212_134611_raw.all.mb56.gz 20.83MB Simrad multibeam vendor format
0490_20100212_144611_raw.all.mb56.gz 17.01MB Simrad multibeam vendor format
0491_20100212_154611_raw.all.mb56.gz 18.79MB Simrad multibeam vendor format
0492_20100212_164611_raw.all.mb56.gz 18.78MB Simrad multibeam vendor format
0493_20100212_174611_raw.all.mb56.gz 18.65MB Simrad multibeam vendor format
0494_20100212_184611_raw.all.mb56.gz 18.80MB Simrad multibeam vendor format
0495_20100212_194611_raw.all.mb56.gz 22.91MB Simrad multibeam vendor format
0496_20100212_204611_raw.all.mb56.gz 25.64MB Simrad multibeam vendor format
0497_20100212_214611_raw.all.mb56.gz 22.08MB Simrad multibeam vendor format
0498_20100212_224611_raw.all.mb56.gz 21.15MB Simrad multibeam vendor format
0499_20100212_234611_raw.all.mb56.gz 19.65MB Simrad multibeam vendor format
0500_20100213_004611_raw.all.mb56.gz 18.80MB Simrad multibeam vendor format
0501_20100213_014611_raw.all.mb56.gz 18.77MB Simrad multibeam vendor format
0502_20100213_024611_raw.all.mb56.gz 18.78MB Simrad multibeam vendor format
0503_20100213_034611_raw.all.mb56.gz 19.11MB Simrad multibeam vendor format
0504_20100213_044611_raw.all.mb56.gz 18.06MB Simrad multibeam vendor format
0505_20100213_054611_raw.all.mb56.gz 18.56MB Simrad multibeam vendor format
0506_20100213_064611_raw.all.mb56.gz 17.94MB Simrad multibeam vendor format
0507_20100213_074611_raw.all.mb56.gz 18.22MB Simrad multibeam vendor format
0508_20100213_084611_raw.all.mb56.gz 16.50MB Simrad multibeam vendor format
0509_20100213_094611_raw.all.mb56.gz 18.01MB Simrad multibeam vendor format
0510_20100213_104611_raw.all.mb56.gz 16.52MB Simrad multibeam vendor format
0511_20100213_114611_raw.all.mb56.gz 16.99MB Simrad multibeam vendor format
0512_20100213_124611_raw.all.mb56.gz 17.59MB Simrad multibeam vendor format
0513_20100213_134611_raw.all.mb56.gz 17.95MB Simrad multibeam vendor format
0514_20100213_144611_raw.all.mb56.gz 17.44MB Simrad multibeam vendor format
0515_20100213_154611_raw.all.mb56.gz 17.90MB Simrad multibeam vendor format
0516_20100213_164611_raw.all.mb56.gz 16.92MB Simrad multibeam vendor format
0517_20100213_174611_raw.all.mb56.gz 14.89MB Simrad multibeam vendor format
0518_20100214_035157_raw.all.mb56.gz 10.70MB Simrad multibeam vendor format
0519_20100214_050556_raw.all.mb56.gz 14.08MB Simrad multibeam vendor format
0520_20100214_060556_raw.all.mb56.gz 1.76MB Simrad multibeam vendor format
0521_20100214_084538_raw.all.mb56.gz 15.78MB Simrad multibeam vendor format
0522_20100214_094538_raw.all.mb56.gz 19.56MB Simrad multibeam vendor format
0523_20100214_104538_raw.all.mb56.gz 23.11MB Simrad multibeam vendor format
0524_20100214_114538_raw.all.mb56.gz 28.62MB Simrad multibeam vendor format
0525_20100214_124538_raw.all.mb56.gz 26.65MB Simrad multibeam vendor format
0526_20100214_134538_raw.all.mb56.gz 22.57MB Simrad multibeam vendor format
0527_20100214_144538_raw.all.mb56.gz 19.29MB Simrad multibeam vendor format
0528_20100214_154538_raw.all.mb56.gz 2.78MB Simrad multibeam vendor format
0529_20100214_155233_raw.all.mb56.gz 24.56MB Simrad multibeam vendor format
0530_20100214_165233_raw.all.mb56.gz 28.11MB Simrad multibeam vendor format
0531_20100214_175233_raw.all.mb56.gz 21.87MB Simrad multibeam vendor format
0532_20100214_185233_raw.all.mb56.gz 18.15MB Simrad multibeam vendor format
0533_20100214_195233_raw.all.mb56.gz 16.45MB Simrad multibeam vendor format
0534_20100214_205233_raw.all.mb56.gz 16.64MB Simrad multibeam vendor format
0535_20100214_215233_raw.all.mb56.gz 16.89MB Simrad multibeam vendor format
0536_20100214_225233_raw.all.mb56.gz 18.09MB Simrad multibeam vendor format
0537_20100214_235233_raw.all.mb56.gz 19.78MB Simrad multibeam vendor format
0538_20100215_005233_raw.all.mb56.gz 22.32MB Simrad multibeam vendor format
0539_20100215_015233_raw.all.mb56.gz 22.03MB Simrad multibeam vendor format
0540_20100215_025233_raw.all.mb56.gz 19.08MB Simrad multibeam vendor format
0541_20100215_035233_raw.all.mb56.gz 21.59MB Simrad multibeam vendor format
0542_20100215_045233_raw.all.mb56.gz 4.34MB Simrad multibeam vendor format
0543_20100215_094305_raw.all.mb56.gz 16.07MB Simrad multibeam vendor format
0544_20100215_114917_raw.all.mb56.gz 5.95MB Simrad multibeam vendor format
0545_20100215_123830_raw.all.mb56.gz 8.22MB Simrad multibeam vendor format
0546_20100215_180835_raw.all.mb56.gz 6.33MB Simrad multibeam vendor format
0547_20100215_235940_raw.all.mb56.gz 20.52MB Simrad multibeam vendor format
0548_20100216_005940_raw.all.mb56.gz 18.13MB Simrad multibeam vendor format
0549_20100216_061600_raw.all.mb56.gz 4.90MB Simrad multibeam vendor format
0550_20100216_075019_raw.all.mb56.gz 20.95MB Simrad multibeam vendor format
0551_20100216_085019_raw.all.mb56.gz 7.51MB Simrad multibeam vendor format
0552_20100216_171908_raw.all.mb56.gz 20.34MB Simrad multibeam vendor format
0553_20100216_181908_raw.all.mb56.gz 7.97MB Simrad multibeam vendor format
0554_20100216_194532_raw.all.mb56.gz 20.14MB Simrad multibeam vendor format
0555_20100216_204532_raw.all.mb56.gz 9.62MB Simrad multibeam vendor format
0556_20100216_221606_raw.all.mb56.gz 5.86MB Simrad multibeam vendor format
0557_20100216_223454_raw.all.mb56.gz 19.86MB Simrad multibeam vendor format
0558_20100216_233454_raw.all.mb56.gz 1.44MB Simrad multibeam vendor format
0559_20100217_042230_raw.all.mb56.gz 19.41MB Simrad multibeam vendor format
0560_20100217_052230_raw.all.mb56.gz 19.21MB Simrad multibeam vendor format
0561_20100217_062230_raw.all.mb56.gz 11.65MB Simrad multibeam vendor format
0562_20100217_081813_raw.all.mb56.gz 20.95MB Simrad multibeam vendor format
0563_20100217_091813_raw.all.mb56.gz 10.42MB Simrad multibeam vendor format
0564_20100217_110718_raw.all.mb56.gz 0.70MB Simrad multibeam vendor format
0565_20100218_000917_raw.all.mb56.gz 21.84MB Simrad multibeam vendor format
0566_20100218_010917_raw.all.mb56.gz 4.45MB Simrad multibeam vendor format
0567_20100218_084345_raw.all.mb56.gz 20.71MB Simrad multibeam vendor format
0568_20100218_094345_raw.all.mb56.gz 20.34MB Simrad multibeam vendor format
0569_20100218_104345_raw.all.mb56.gz 2.31MB Simrad multibeam vendor format
0570_20100219_010243_raw.all.mb56.gz 19.19MB Simrad multibeam vendor format
0571_20100219_020243_raw.all.mb56.gz 3.64MB Simrad multibeam vendor format
0572_20100219_072330_raw.all.mb56.gz 19.23MB Simrad multibeam vendor format
0573_20100219_082330_raw.all.mb56.gz 14.70MB Simrad multibeam vendor format
0574_20100219_090632_raw.all.mb56.gz 4.46MB Simrad multibeam vendor format
0575_20100219_095906_raw.all.mb56.gz 12.69MB Simrad multibeam vendor format
0576_20100219_141038_raw.all.mb56.gz 21.08MB Simrad multibeam vendor format
0577_20100219_151038_raw.all.mb56.gz 9.70MB Simrad multibeam vendor format
0578_20100219_185100_raw.all.mb56.gz 17.50MB Simrad multibeam vendor format
0579_20100219_195100_raw.all.mb56.gz 15.97MB Simrad multibeam vendor format
0580_20100219_205100_raw.all.mb56.gz 8.13MB Simrad multibeam vendor format
0581_20100219_223817_raw.all.mb56.gz 11.82MB Simrad multibeam vendor format
0582_20100219_232700_raw.all.mb56.gz 16.98MB Simrad multibeam vendor format
0583_20100220_002700_raw.all.mb56.gz 16.16MB Simrad multibeam vendor format
0584_20100220_012700_raw.all.mb56.gz 5.46MB Simrad multibeam vendor format
0585_20100220_023748_raw.all.mb56.gz 17.00MB Simrad multibeam vendor format
0586_20100220_033748_raw.all.mb56.gz 20.29MB Simrad multibeam vendor format
0587_20100220_043748_raw.all.mb56.gz 13.95MB Simrad multibeam vendor format
0588_20100220_214103_raw.all.mb56.gz 12.35MB Simrad multibeam vendor format
0589_20100221_030333_raw.all.mb56.gz 21.72MB Simrad multibeam vendor format
0590_20100221_040333_raw.all.mb56.gz 21.24MB Simrad multibeam vendor format
0591_20100221_050333_raw.all.mb56.gz 21.84MB Simrad multibeam vendor format
0592_20100221_060333_raw.all.mb56.gz 22.14MB Simrad multibeam vendor format
0593_20100221_070333_raw.all.mb56.gz 20.53MB Simrad multibeam vendor format
0594_20100221_080333_raw.all.mb56.gz 10.54MB Simrad multibeam vendor format
0595_20100221_114526_raw.all.mb56.gz 4.71MB Simrad multibeam vendor format
0596_20100221_212054_raw.all.mb56.gz 6.35MB Simrad multibeam vendor format
0597_20100222_042040_raw.all.mb56.gz 21.47MB Simrad multibeam vendor format
0598_20100222_052041_raw.all.mb56.gz 17.96MB Simrad multibeam vendor format
0599_20100222_062041_raw.all.mb56.gz 20.24MB Simrad multibeam vendor format
0600_20100222_072041_raw.all.mb56.gz 4.74MB Simrad multibeam vendor format
0601_20100222_110257_raw.all.mb56.gz 20.84MB Simrad multibeam vendor format
0602_20100222_124610_raw.all.mb56.gz 16.21MB Simrad multibeam vendor format
0603_20100222_142632_raw.all.mb56.gz 18.90MB Simrad multibeam vendor format
0604_20100222_152632_raw.all.mb56.gz 19.25MB Simrad multibeam vendor format
0605_20100222_162632_raw.all.mb56.gz 19.24MB Simrad multibeam vendor format
0606_20100222_172632_raw.all.mb56.gz 16.83MB Simrad multibeam vendor format
0607_20100222_182632_raw.all.mb56.gz 15.99MB Simrad multibeam vendor format
0608_20100222_192632_raw.all.mb56.gz 20.44MB Simrad multibeam vendor format
0609_20100222_202632_raw.all.mb56.gz 18.29MB Simrad multibeam vendor format
0610_20100222_212632_raw.all.mb56.gz 21.13MB Simrad multibeam vendor format
0611_20100222_222632_raw.all.mb56.gz 21.15MB Simrad multibeam vendor format
0612_20100222_232632_raw.all.mb56.gz 18.74MB Simrad multibeam vendor format
0613_20100223_002632_raw.all.mb56.gz 18.69MB Simrad multibeam vendor format
0614_20100223_012632_raw.all.mb56.gz 17.86MB Simrad multibeam vendor format
0615_20100223_022632_raw.all.mb56.gz 17.40MB Simrad multibeam vendor format
0616_20100223_075007_raw.all.mb56.gz 18.33MB Simrad multibeam vendor format
0617_20100223_085007_raw.all.mb56.gz 0.91MB Simrad multibeam vendor format
0618_20100223_131329_raw.all.mb56.gz 18.80MB Simrad multibeam vendor format
0619_20100223_141329_raw.all.mb56.gz 19.78MB Simrad multibeam vendor format
0620_20100223_151329_raw.all.mb56.gz 19.86MB Simrad multibeam vendor format
0621_20100223_161329_raw.all.mb56.gz 19.64MB Simrad multibeam vendor format
0622_20100223_171329_raw.all.mb56.gz 18.99MB Simrad multibeam vendor format
0623_20100223_181329_raw.all.mb56.gz 14.25MB Simrad multibeam vendor format
0624_20100223_221557_raw.all.mb56.gz 20.51MB Simrad multibeam vendor format
0625_20100223_231557_raw.all.mb56.gz 15.30MB Simrad multibeam vendor format
0626_20100224_021919_raw.all.mb56.gz 22.81MB Simrad multibeam vendor format
0627_20100224_031919_raw.all.mb56.gz 13.16MB Simrad multibeam vendor format
0628_20100224_053622_raw.all.mb56.gz 20.31MB Simrad multibeam vendor format
0629_20100224_063622_raw.all.mb56.gz 24.33MB Simrad multibeam vendor format
0630_20100224_073622_raw.all.mb56.gz 21.99MB Simrad multibeam vendor format
0631_20100224_083622_raw.all.mb56.gz 18.35MB Simrad multibeam vendor format
0632_20100224_093622_raw.all.mb56.gz 4.20MB Simrad multibeam vendor format
0633_20100224_101452_raw.all.mb56.gz 11.08MB Simrad multibeam vendor format
0634_20100224_125338_raw.all.mb56.gz 23.11MB Simrad multibeam vendor format
0635_20100224_135339_raw.all.mb56.gz 16.67MB Simrad multibeam vendor format
0636_20100224_145339_raw.all.mb56.gz 14.69MB Simrad multibeam vendor format
0637_20100224_171405_raw.all.mb56.gz 18.81MB Simrad multibeam vendor format
0638_20100224_181405_raw.all.mb56.gz 15.53MB Simrad multibeam vendor format
0639_20100224_191405_raw.all.mb56.gz 2.30MB Simrad multibeam vendor format
0640_20100225_024602_raw.all.mb56.gz 16.63MB Simrad multibeam vendor format
0641_20100225_034603_raw.all.mb56.gz 19.30MB Simrad multibeam vendor format
0642_20100225_044603_raw.all.mb56.gz 18.26MB Simrad multibeam vendor format
0643_20100225_054603_raw.all.mb56.gz 20.66MB Simrad multibeam vendor format
0644_20100225_064603_raw.all.mb56.gz 19.58MB Simrad multibeam vendor format
0645_20100225_211136_raw.all.mb56.gz 22.57MB Simrad multibeam vendor format
0646_20100225_221136_raw.all.mb56.gz 20.65MB Simrad multibeam vendor format
0647_20100225_231136_raw.all.mb56.gz 17.13MB Simrad multibeam vendor format
0648_20100226_001136_raw.all.mb56.gz 17.20MB Simrad multibeam vendor format
0649_20100226_011136_raw.all.mb56.gz 14.82MB Simrad multibeam vendor format
0650_20100226_021136_raw.all.mb56.gz 15.10MB Simrad multibeam vendor format
0651_20100226_031136_raw.all.mb56.gz 12.98MB Simrad multibeam vendor format
0652_20100226_041136_raw.all.mb56.gz 13.59MB Simrad multibeam vendor format
0653_20100226_051136_raw.all.mb56.gz 15.37MB Simrad multibeam vendor format
0654_20100226_061136_raw.all.mb56.gz 14.30MB Simrad multibeam vendor format
0655_20100226_071136_raw.all.mb56.gz 12.17MB Simrad multibeam vendor format
0656_20100226_081136_raw.all.mb56.gz 12.21MB Simrad multibeam vendor format
0657_20100226_091136_raw.all.mb56.gz 16.28MB Simrad multibeam vendor format
0658_20100226_101136_raw.all.mb56.gz 14.61MB Simrad multibeam vendor format
0659_20100226_111136_raw.all.mb56.gz 16.63MB Simrad multibeam vendor format
0660_20100226_121136_raw.all.mb56.gz 21.77MB Simrad multibeam vendor format
0661_20100226_131136_raw.all.mb56.gz 10.01MB Simrad multibeam vendor format
0662_20100226_141136_raw.all.mb56.gz 9.27MB Simrad multibeam vendor format
0663_20100226_151136_raw.all.mb56.gz 8.49MB Simrad multibeam vendor format
0664_20100226_161136_raw.all.mb56.gz 8.89MB Simrad multibeam vendor format
0665_20100226_171136_raw.all.mb56.gz 9.00MB Simrad multibeam vendor format
0666_20100226_181136_raw.all.mb56.gz 8.94MB Simrad multibeam vendor format
0667_20100226_191136_raw.all.mb56.gz 8.88MB Simrad multibeam vendor format
0668_20100226_201136_raw.all.mb56.gz 8.97MB Simrad multibeam vendor format
0669_20100226_211136_raw.all.mb56.gz 8.64MB Simrad multibeam vendor format
0670_20100226_221136_raw.all.mb56.gz 8.81MB Simrad multibeam vendor format
0671_20100226_231136_raw.all.mb56.gz 8.77MB Simrad multibeam vendor format
0672_20100227_001136_raw.all.mb56.gz 8.69MB Simrad multibeam vendor format
0673_20100227_011136_raw.all.mb56.gz 8.56MB Simrad multibeam vendor format
0674_20100227_021136_raw.all.mb56.gz 2.14MB Simrad multibeam vendor format

Metadata Files: 3

Files File Size Description
NBP1001_Multibeam.xml NGDC created ISO metadata
NBP1001.xml 67.4KB XML metadata file
mb_bag_info.tar.gz 18.9KB Additional cruise information